Location: Arthez
(43.0833°N, 0.2500°W)
Time: 00:30:32
(UTC+00:00)

SL-19 R/B - Pass Details

Date: 23 October 2021
Orbit: 874 x 1209 km, 100.6° (Epoch: 27 November)

Event Time Altitude Azimuth Distance (km) Brightness Sun altitude
Rises 18:01:52 0° 15° (NNE) 3,557 7.2 -10.9°
Reaches altitude 10° 18:04:19 10° 15° (NNE) 2,582 6.5 -11.4°
Maximum altitude 18:09:59 82° 289° (WNW) 890 4.4 -12.4°
Drops below altitude 10° 18:15:32 10° 202° (SSW) 2,520 7.0 -13.4°
Sets 18:17:54 0° 201° (SSW) 3,464 7.7 -13.9°
